• In Belarus
  • List of Countries
  • For 7 days
  • Water Temperature
  • Satellite Maps
  • Weather Map
  • Weather Widgets
  • user-avatar
    Login

    Hourly Weather Naftalan

    Today, 20 September, Wednesday

    Time Temperature Precipitation Wind Pressure Humidity
    00:00 +26°C° 0 mm 4 mps 764 mmHg 67%
    01:00 +26°C° 0 mm 4 mps 763 mmHg 67%
    02:00 +26°C° 0 mm 3 mps 763 mmHg 68%
    03:00 +26°C° 0 mm 3 mps 763 mmHg 68%
    04:00 +25°C° 0 mm 2 mps 763 mmHg 68%
    05:00 +25°C° 0 mm 2 mps 763 mmHg 68%
    06:00 +25°C° 0 mm 2 mps 764 mmHg 68%
    07:00 +27°C° 0 mm 1 mps 764 mmHg 61%
    08:00 +29°C° 0 mm 1 mps 764 mmHg 53%
    09:00 +31°C° 0 mm 1 mps 764 mmHg 46%
    10:00 +32°C° 0 mm 1 mps 764 mmHg 40%
    11:00 +34°C° 0 mm 2 mps 763 mmHg 34%
    12:00 +36°C° 0 mm 2 mps 763 mmHg 27%
    13:00 +36°C° 0 mm 3 mps 763 mmHg 26%
    14:00 +36°C° 0 mm 3 mps 762 mmHg 25%
    15:00 +37°C° 0 mm 4 mps 762 mmHg 23%
    16:00 +34°C° 0 mm 4 mps 762 mmHg 30%
    17:00 +32°C° 0 mm 4 mps 762 mmHg 36%
    18:00 +29°C° 0 mm 4 mps 762 mmHg 42%
    19:00 +29°C° 0 mm 4 mps 762 mmHg 48%
    20:00 +28°C° 0 mm 3 mps 762 mmHg 54%
    21:00 +27°C° 0 mm 3 mps 762 mmHg 60%
    22:00 +26°C° 0 mm 2 mps 762 mmHg 62%
    23:00 +26°C° 0 mm 2 mps 762 mmHg 63%

    Tomorrow, 21 September, Thursday

    Time Temperature Precipitation Wind Pressure Humidity
    00:00 +26°C° 0 mm 2 mps 762 mmHg 64%
    01:00 +25°C° 0 mm 2 mps 762 mmHg 66%
    02:00 +25°C° 0 mm 1 mps 762 mmHg 67%
    03:00 +25°C° 0 mm 1 mps 762 mmHg 68%
    04:00 +24°C° 0 mm 1 mps 762 mmHg 69%
    05:00 +24°C° 0 mm 1 mps 762 mmHg 69%
    06:00 +22°C° 0 mm 0 mps 762 mmHg 70%
    07:00 +24°C° 0 mm 0 mps 763 mmHg 61%
    08:00 +29°C° 0 mm 1 mps 763 mmHg 51%
    09:00 +31°C° 0 mm 1 mps 763 mmHg 42%
    10:00 +32°C° 0 mm 1 mps 763 mmHg 37%
    11:00 +35°C° 0 mm 2 mps 762 mmHg 31%
    12:00 +36°C° 0 mm 2 mps 762 mmHg 26%
    13:00 +36°C° 0 mm 3 mps 762 mmHg 26%
    14:00 +36°C° 0 mm 4 mps 761 mmHg 25%
    15:00 +36°C° 0 mm 5 mps 761 mmHg 24%
    16:00 +34°C° 0 mm 4 mps 761 mmHg 31%
    17:00 +32°C° 0 mm 4 mps 761 mmHg 37%
    18:00 +29°C° 0 mm 4 mps 761 mmHg 43%
    19:00 +28°C° 0 mm 4 mps 761 mmHg 49%
    20:00 +28°C° 0 mm 4 mps 761 mmHg 54%
    21:00 +27°C° 0 mm 3 mps 762 mmHg 59%
    22:00 +26°C° 0 mm 3 mps 762 mmHg 61%
    23:00 +26°C° 0 mm 2 mps 762 mmHg 63%

    Day after tomorrow, 22 September, Friday

    Time Temperature Precipitation Wind Pressure Humidity
    00:00 +26°C° 0 mm 2 mps 762 mmHg 65%
    01:00 +25°C° 0 mm 2 mps 762 mmHg 66%
    02:00 +25°C° 0 mm 1 mps 761 mmHg 68%
    03:00 +25°C° 0 mm 1 mps 761 mmHg 70%
    04:00 +24°C° 0 mm 1 mps 761 mmHg 70%
    05:00 +24°C° 0 mm 1 mps 762 mmHg 71%
    06:00 +24°C° 0 mm 1 mps 762 mmHg 72%
    07:00 +26°C° 0 mm 1 mps 762 mmHg 62%
    08:00 +29°C° 0 mm 1 mps 762 mmHg 52%
    09:00 +31°C° 0 mm 1 mps 762 mmHg 41%
    10:00 +32°C° 0 mm 1 mps 761 mmHg 35%
    11:00 +35°C° 0 mm 2 mps 761 mmHg 28%
    12:00 +36°C° 0 mm 3 mps 761 mmHg 22%
    13:00 +36°C° 0 mm 4 mps 760 mmHg 21%
    14:00 +36°C° 0 mm 4 mps 760 mmHg 21%
    15:00 +36°C° 0 mm 5 mps 760 mmHg 20%
    16:00 +34°C° 0 mm 5 mps 760 mmHg 29%
    17:00 +32°C° 0 mm 5 mps 760 mmHg 37%
    18:00 +29°C° 0 mm 5 mps 760 mmHg 46%
    19:00 +28°C° 0 mm 4 mps 760 mmHg 52%
    20:00 +28°C° 0 mm 4 mps 760 mmHg 59%
    21:00 +27°C° 0 mm 4 mps 761 mmHg 66%
    22:00 +27°C° 0 mm 3 mps 761 mmHg 67%
    23:00 +27°C° 0 mm 3 mps 761 mmHg 68%

    23 September, Saturday

    Time Temperature Precipitation Wind Pressure Humidity
    00:00 +26°C° 0 mm 2 mps 761 mmHg 69%
    01:00 +26°C° 0 mm 2 mps 761 mmHg 70%
    02:00 +26°C° 0 mm 2 mps 761 mmHg 71%
    03:00 +25°C° 0 mm 2 mps 761 mmHg 73%
    04:00 +25°C° 0 mm 2 mps 761 mmHg 73%
    05:00 +25°C° 0 mm 2 mps 761 mmHg 73%
    06:00 +25°C° 0 mm 2 mps 762 mmHg 73%
    07:00 +26°C° 0 mm 2 mps 762 mmHg 64%
    08:00 +28°C° 0 mm 2 mps 762 mmHg 56%
    09:00 +30°C° 0 mm 2 mps 763 mmHg 47%
    10:00 +32°C° 0 mm 2 mps 763 mmHg 40%
    11:00 +34°C° 0 mm 2 mps 762 mmHg 33%
    12:00 +36°C° 0 mm 2 mps 762 mmHg 27%
    13:00 +36°C° 0 mm 3 mps 762 mmHg 26%
    14:00 +36°C° 0 mm 4 mps 762 mmHg 25%
    15:00 +36°C° 0 mm 5 mps 762 mmHg 25%
    16:00 +34°C° 0 mm 5 mps 762 mmHg 32%
    17:00 +32°C° 0 mm 4 mps 763 mmHg 40%
    18:00 +29°C° 0 mm 4 mps 763 mmHg 48%
    19:00 +28°C° 0 mm 3 mps 764 mmHg 53%
    20:00 +28°C° 0 mm 3 mps 764 mmHg 58%
    21:00 +27°C° 0 mm 2 mps 764 mmHg 62%
    22:00 +26°C° 0 mm 2 mps 764 mmHg 61%
    23:00 +26°C° 0 mm 2 mps 764 mmHg 60%

    24 September, Sunday

    Time Temperature Precipitation Wind Pressure Humidity
    00:00 +26°C° 0 mm 2 mps 764 mmHg 59%
    01:00 +26°C° 0 mm 2 mps 764 mmHg 57%
    02:00 +25°C° 0 mm 2 mps 764 mmHg 55%
    03:00 +25°C° 0 mm 3 mps 764 mmHg 52%
    04:00 +25°C° 0 mm 3 mps 765 mmHg 51%
    05:00 +25°C° 0 mm 3 mps 765 mmHg 50%
    06:00 +24°C° 0 mm 3 mps 765 mmHg 49%
    07:00 +27°C° 0 mm 3 mps 766 mmHg 44%
    08:00 +29°C° 0 mm 3 mps 766 mmHg 39%
    09:00 +31°C° 0 mm 3 mps 766 mmHg 35%
    10:00 +33°C° 0 mm 4 mps 766 mmHg 31%
    11:00 +35°C° 0 mm 4 mps 766 mmHg 28%
    12:00 +36°C° 0 mm 5 mps 765 mmHg 25%
    13:00 +35°C° 0 mm 5 mps 765 mmHg 27%
    14:00 +35°C° 0 mm 6 mps 765 mmHg 29%
    15:00 +34°C° 0 mm 6 mps 765 mmHg 31%
    16:00 +32°C° 0 mm 5 mps 765 mmHg 38%
    17:00 +29°C° 0 mm 5 mps 765 mmHg 45%
    18:00 +28°C° 0 mm 4 mps 765 mmHg 53%
    19:00 +27°C° 0 mm 3 mps 766 mmHg 55%
    20:00 +26°C° 0 mm 3 mps 766 mmHg 58%
    21:00 +25°C° 0 mm 3 mps 766 mmHg 60%
    22:00 +25°C° 0 mm 3 mps 766 mmHg 60%
    23:00 +25°C° 0 mm 3 mps 766 mmHg 60%

    25 September, Monday

    Time Temperature Precipitation Wind Pressure Humidity
    00:00 +25°C° 0 mm 3 mps 765 mmHg 60%
    01:00 +25°C° 0 mm 3 mps 765 mmHg 61%
    02:00 +24°C° 0 mm 3 mps 765 mmHg 62%
    03:00 +23°C° 0 mm 4 mps 765 mmHg 63%
    04:00 +23°C° 0 mm 4 mps 766 mmHg 63%
    05:00 +23°C° 0 mm 4 mps 766 mmHg 63%
    06:00 +23°C° 0 mm 4 mps 766 mmHg 63%
    07:00 +26°C° 0 mm 4 mps 766 mmHg 56%
    08:00 +28°C° 0 mm 3 mps 767 mmHg 49%
    09:00 +30°C° 0 mm 3 mps 767 mmHg 42%
    10:00 +32°C° 0 mm 4 mps 767 mmHg 38%
    11:00 +33°C° 0 mm 4 mps 767 mmHg 34%
    12:00 +34°C° 0 mm 5 mps 766 mmHg 29%
    13:00 +33°C° 0 mm 5 mps 766 mmHg 30%
    14:00 +33°C° 0 mm 6 mps 766 mmHg 31%
    15:00 +32°C° 0 mm 6 mps 766 mmHg 32%
    16:00 +30°C° 0 mm 5 mps 766 mmHg 38%
    17:00 +28°C° 0 mm 5 mps 767 mmHg 45%
    18:00 +26°C° 0 mm 5 mps 767 mmHg 51%
    19:00 +26°C° 0 mm 4 mps 767 mmHg 54%
    20:00 +25°C° 0 mm 4 mps 767 mmHg 56%
    21:00 +25°C° 0 mm 3 mps 768 mmHg 58%
    22:00 +24°C° 0 mm 3 mps 768 mmHg 58%
    23:00 +24°C° 0 mm 3 mps 768 mmHg 57%
    Show more